Location: Carrières
(48.9495°N, 2.0407°E)
Time: 20:26:53
(UTC+00:00)

Transit 2A - Pass Details

Date: 23 April 2024
Orbit: 594 x 957 km, 66.7° (Epoch: 18 May)

Event Time Altitude Azimuth Distance (km) Brightness Sun altitude
Rises 11:42:43 0° 325° (NW) 3,150 8.9 53.8°
Reaches altitude 10° 11:45:40 10° 344° (NNW) 2,296 8.2 53.8°
Maximum altitude 11:49:26 19° 29° (NNE) 1,820 7.9 53.8°
Drops below altitude 10° 11:53:26 10° 74° (ENE) 2,468 8.6 53.8°
Sets 11:56:45 0° 92° (E) 3,470 9.4 53.8°
